[[{"header":{"parameterUnit":"m.s-1","parameterCategory":1,"la1":30.2991,"la2":30.254,"lo1":-89.0895,"lo2":-89.0444,"dy":0.0017,"dx":0.0017,"nx":28,"ny":28,"refTime":"2025-07-29T21:00:00:Z","depth":0,"parameterNumber":2,"parameterNumberName":"U-component_of_WINDS"},"data":[0,0,0,0,0,0,0,0,0,0,0,0,0,0,0,0,0,0,0,0,0,0,0,0,0,0,0,0,0,0,0,0,0,0,0,0,0,0,0,0,0,0,0,0,0,0,0,0,0,0,0,0,0,0,0,0,0,0,3.4445,3.4445,0,3.4384,3.4383,3.4382,3.4262,3.4259,3.4257,3.4255,3.4196,3.4197,3.4197,0,0,0,0,0,0,0,0,0,0,0,0,0,3.4461,3.4462,3.4445,3.4445,3.4444,3.4384,3.4383,3.4382,3.4262,3.4259,3.4256,3.4254,3.4196,3.4196,3.4197,0,0,0,0,0,0,0,0,0,0,0,0,0,3.4433,3.4462,3.4445,3.4376,3.437,3.4384,3.4383,3.4382,3.4263,3.4259,3.4255,3.4252,3.4195,3.4196,3.4197,3.4275,0,0,3.42,3.4201,0,0,0,0,0,0,0,0,3.4435,3.4432,3.4387,3.4381,3.4374,3.4327,3.4367,3.4346,3.4264,3.4303,3.4255,3.425,3.4243,3.4239,3.4236,3.4272,3.427,3.4201,3.4201,3.4202,3.4202,0,0,0,0,0,0,0,3.4437,3.4434,3.4421,3.4387,3.4379,3.4349,3.4341,3.4363,3.4294,3.43,3.4291,3.4285,3.4238,3.4235,3.4234,3.4269,3.42,3.4201,3.4202,3.4202,3.4365,3.4368,0,0,0,0,0,0,3.4448,3.4437,3.4423,3.4419,3.4396,3.4352,3.4343,3.4345,3.4293,3.4282,3.4288,3.428,3.4235,3.4233,3.4231,3.4317,3.4202,3.4202,3.4203,3.4361,3.4365,3.4369,0,0,0,0,0,0,3.4449,3.4448,3.4425,3.4425,3.442,3.4356,3.4359,3.4346,3.4343,3.4284,3.4272,3.4297,3.4232,3.423,3.4264,3.4314,3.4203,3.4204,3.4357,3.4362,3.4367,3.4492,0,0,0,0,0,0,3.445,3.4449,3.4478,3.4427,3.4421,3.4459,3.4362,3.4347,3.4344,3.4333,3.429,3.428,3.4229,3.4264,3.4265,3.4313,3.4205,3.4352,3.4359,3.4366,3.4483,3.4501,3.4516,0,0,0,0,0,3.4451,3.4516,3.448,3.4479,3.4455,3.4462,3.4459,3.4399,3.4349,3.4377,3.4339,3.4281,3.4308,3.4268,3.4269,3.4318,3.4348,3.4357,3.4365,3.4476,3.4498,3.4516,0,0,0,0,0,0,3.4577,3.4509,3.4467,3.4518,3.4497,3.4442,3.4476,3.4424,3.4418,3.4407,3.4334,3.4325,3.437,3.4347,3.4304,3.439,3.4319,3.4328,3.4403,3.4423,3.4439,3.4444,3.4205,0,0,0,0,0,3.461,3.4621,3.4561,3.4612,3.4603,3.4542,3.4543,3.4498,3.4473,3.4464,3.4429,3.4409,3.4412,3.4416,3.4417,3.4479,3.4468,3.4513,3.453,3.4544,3.4553,3.4583,3.4602,3.4397,3.4397,3.4397,0,0,3.4679,3.4643,3.4655,3.4636,3.4614,3.4628,3.4535,3.4554,3.4563,3.4468,3.4497,3.4471,3.4443,3.4492,3.4512,3.4475,3.4607,3.4555,3.4566,3.4567,3.4593,3.4613,3.463,3.4403,3.4401,3.4401,0,0,3.4812,3.4787,3.4825,3.4805,3.4772,3.473,3.474,3.4693,3.4671,3.4699,3.4628,3.4638,3.4646,3.4629,3.4621,3.4746,3.4692,3.4749,3.4836,3.4866,3.4882,3.4896,3.494,3.4957,3.4758,3.4758,3.4758,0,3.4903,3.4919,3.4852,3.4874,3.4868,3.478,3.4818,3.4802,3.4773,3.4771,3.4729,3.4736,3.4712,3.4754,3.4785,3.4782,3.479,3.4753,3.4885,3.4898,3.4911,3.4951,3.4968,3.4765,3.4764,3.4763,3.4763,0,3.5032,3.5045,3.508,3.5051,3.5048,3.5079,3.5017,3.5022,3.4977,3.4941,3.497,3.4937,3.4929,3.4935,3.4893,3.4972,3.495,3.4898,3.4825,3.4938,3.4975,3.499,3.4775,3.4772,3.477,3.4769,0,0,3.5244,3.5175,3.5189,3.5174,3.5131,3.514,3.5167,3.5156,3.5162,3.5145,3.5165,3.5173,3.5124,3.5116,3.507,3.5097,3.5196,3.5041,3.5039,3.5071,3.5281,3.5319,3.5339,3.516,3.5163,3.5165,3.5282,0,3.5367,3.5407,3.5346,3.54,3.541,3.5327,3.5349,3.5326,3.5292,3.5296,3.5259,3.5265,3.5201,3.5195,3.5218,3.518,3.5238,3.517,3.5179,3.518,3.5188,3.5358,3.5399,3.5512,3.5297,3.5299,3.5301,0,3.5516,3.5503,3.5558,3.551,3.5512,3.5533,3.5518,3.5523,3.5495,3.5468,3.5458,3.5403,3.5426,3.5356,3.5386,3.5342,3.5341,3.5323,3.5326,3.5324,3.5247,3.536,3.5546,3.5563,3.5323,3.5321,3.532,0,3.5664,3.566,3.5692,3.5682,3.5627,3.5644,3.5622,3.559,3.5587,3.5574,3.5571,3.5563,3.5558,3.5552,3.5497,3.5451,3.5534,3.5459,3.5512,3.5514,3.5533,3.5533,3.5722,3.5535,3.5535,3.5534,3.5534,0,3.5807,3.5844,3.5757,3.5777,3.5815,3.5745,3.5785,3.5755,3.5727,3.5739,3.5667,3.5681,3.5606,3.5612,3.5569,3.56,3.5599,3.5578,3.5566,3.5584,3.5587,3.5583,3.5573,3.5539,3.5538,3.5537,3.5536,0,3.5979,3.5922,3.5951,3.5896,3.5883,3.5913,3.5866,3.5882,3.5843,3.586,3.586,3.5799,3.5801,3.5745,3.5737,3.5708,3.5758,3.5733,3.5767,3.5759,3.5815,3.581,3.6007,3.6029,3.583,3.5832,3.5833,0,3.6074,3.61,3.6047,3.6049,3.603,3.6035,3.6031,3.5963,3.5962,3.5931,3.5951,3.5947,3.594,3.5949,3.5904,3.5897,3.5871,3.594,3.5869,3.5886,3.5871,3.587,3.5871,3.5955,3.5958,3.596,3.5961,0,3.6249,3.6219,3.6215,3.6202,3.6198,3.6185,3.6167,3.6173,3.6099,3.6102,3.6102,3.6097,3.6088,3.6085,3.6069,3.6047,3.5993,3.5984,3.5996,3.6014,3.6033,3.6022,3.5807,3.598,3.5978,3.5977,3.5976,3.5975,3.6384,3.6402,3.6367,3.6365,3.6344,3.6328,3.634,3.6301,3.63,3.6286,3.6246,3.6254,3.6223,3.6196,3.6179,3.6184,3.615,3.6168,3.6172,3.6177,3.6187,3.6033,3.6182,3.6181,3.618,3.618,3.6179,0,3.6554,3.6527,3.6526,3.6501,3.65,3.6446,3.6423,3.6425,3.6432,3.6408,3.6402,3.6403,3.6399,3.6354,3.6345,3.6358,3.6332,3.6358,3.6356,3.6351,3.6219,3.6209,3.6378,3.6378,3.6378,3.6378,3.6378,3.6378,3.6642,3.667,3.6636,3.6652,3.6624,3.663,3.6621,3.6606,3.6586,3.6589,3.6585,3.6555,3.6522,3.651,3.6504,3.6491,3.6491,3.6525,3.6503,3.638,3.6361,3.6343,3.6333,3.6526,3.6526,3.6635,3.6636,3.6637]},{"header":{"parameterUnit":"m.s-1","parameterCategory":1,"la1":30.2991,"la2":30.254,"lo1":-89.0895,"lo2":-89.0444,"dy":0.0017,"dx":0.0017,"nx":28,"ny":28,"refTime":"2025-07-29T21:00:00:Z","depth":0,"parameterNumber":3,"parameterNumberName":"V-component_of_WINDS"},"data":[0,0,0,0,0,0,0,0,0,0,0,0,0,0,0,0,0,0,0,0,0,0,0,0,0,0,0,0,0,0,0,0,0,0,0,0,0,0,0,0,0,0,0,0,0,0,0,0,0,0,0,0,0,0,0,0,0,0,3.4515,3.4516,0,3.4592,3.4592,3.4593,3.4608,3.4607,3.4607,3.4606,3.4677,3.468,3.4682,0,0,0,0,0,0,0,0,0,0,0,0,0,3.4375,3.4378,3.4515,3.4516,3.4517,3.4591,3.4592,3.4593,3.4608,3.4607,3.4607,3.4606,3.4677,3.4679,3.4682,0,0,0,0,0,0,0,0,0,0,0,0,0,3.4442,3.4379,3.4515,3.4534,3.4536,3.4591,3.4592,3.4594,3.4608,3.4607,3.4607,3.4606,3.4676,3.4679,3.4683,3.4723,0,0,3.4694,3.4695,0,0,0,0,0,0,0,0,3.4438,3.4447,3.453,3.4532,3.4535,3.459,3.4569,3.4637,3.4608,3.4581,3.4606,3.4605,3.4648,3.4654,3.467,3.4726,3.4729,3.4694,3.4696,3.4698,3.4699,0,0,0,0,0,0,0,3.4434,3.4444,3.4545,3.4531,3.4534,3.4536,3.4544,3.4582,3.4618,3.4583,3.4584,3.4593,3.465,3.4667,3.4672,3.473,3.4694,3.4697,3.47,3.4701,3.4821,3.4822,0,0,0,0,0,0,3.4427,3.444,3.4543,3.4548,3.4484,3.4539,3.4549,3.4573,3.4618,3.4624,3.4594,3.4594,3.4661,3.4668,3.4674,3.4724,3.4698,3.4701,3.4703,3.482,3.4822,3.4823,0,0,0,0,0,0,3.4424,3.4436,3.454,3.4494,3.4508,3.4542,3.4569,3.4575,3.4592,3.4626,3.4632,3.4605,3.466,3.4669,3.4711,3.4726,3.4703,3.4706,3.4819,3.4821,3.4822,3.4823,0,0,0,0,0,0,3.442,3.4435,3.4452,3.4495,3.451,3.4577,3.4571,3.4577,3.4599,3.4599,3.4638,3.4644,3.466,3.4705,3.4714,3.4731,3.4709,3.4818,3.482,3.4822,3.4821,3.4824,3.4826,0,0,0,0,0,3.4415,3.4447,3.4453,3.4465,3.4533,3.4578,3.4586,3.4607,3.46,3.4617,3.4639,3.4643,3.4723,3.4709,3.472,3.4738,3.4817,3.4819,3.4822,3.482,3.4824,3.4826,0,0,0,0,0,0,3.4403,3.4453,3.446,3.4508,3.4539,3.458,3.4602,3.4609,3.4641,3.464,3.4661,3.467,3.471,3.4728,3.4711,3.4778,3.477,3.4774,3.4765,3.4768,3.4771,3.4765,3.4712,0,0,0,0,0,3.4406,3.4441,3.4483,3.4521,3.4536,3.4566,3.4587,3.46,3.4632,3.4644,3.4669,3.4698,3.473,3.475,3.4781,3.4824,3.4832,3.4842,3.4844,3.4846,3.4849,3.4872,3.4877,3.483,3.483,3.483,0,0,3.4413,3.4445,3.4465,3.4519,3.4545,3.4578,3.4577,3.4612,3.4637,3.4649,3.469,3.4709,3.4743,3.4785,3.4805,3.4801,3.4864,3.4849,3.485,3.4852,3.4875,3.4879,3.4883,3.4832,3.4831,3.4831,0,0,3.4442,3.447,3.4505,3.4532,3.4571,3.4591,3.4599,3.464,3.4654,3.4697,3.4706,3.4734,3.4789,3.4812,3.4831,3.487,3.4874,3.4879,3.4891,3.4914,3.4917,3.4921,3.4933,3.4938,3.4882,3.4882,3.4882,0,3.4444,3.4498,3.4522,3.4557,3.458,3.4595,3.463,3.4653,3.4699,3.4714,3.471,3.4779,3.4802,3.485,3.486,3.4875,3.4883,3.4874,3.4915,3.4919,3.4922,3.4935,3.494,3.4883,3.4883,3.4882,3.4882,0,3.4498,3.4535,3.4558,3.4606,3.4631,3.4666,3.4693,3.4715,3.4726,3.4746,3.4788,3.4817,3.4854,3.4866,3.4876,3.4915,3.4912,3.4911,3.4903,3.4927,3.4939,3.4944,3.4883,3.4883,3.4883,3.4883,0,0,3.4521,3.4583,3.459,3.4612,3.4657,3.4685,3.4719,3.4758,3.4777,3.4808,3.4836,3.4883,3.4883,3.4904,3.4917,3.4937,3.4964,3.4934,3.4935,3.4938,3.5008,3.5008,3.5013,3.4968,3.4969,3.497,3.5005,0,3.4555,3.462,3.4643,3.4696,3.4729,3.4744,3.4774,3.4803,3.4822,3.4852,3.4872,3.4904,3.4902,3.4915,3.4936,3.4957,3.4979,3.4955,3.4992,3.4994,3.4983,3.5019,3.5019,3.5051,3.501,3.5011,3.5011,0,3.4603,3.4638,3.4695,3.4736,3.4751,3.4778,3.4815,3.4844,3.4877,3.4889,3.4914,3.4925,3.496,3.495,3.4997,3.498,3.4997,3.501,3.5011,3.5015,3.5003,3.5023,3.5062,3.5066,3.5019,3.5018,3.5018,0,3.4613,3.4674,3.4716,3.4734,3.4783,3.4802,3.4823,3.4855,3.4877,3.4909,3.4923,3.4958,3.4976,3.5002,3.5021,3.5013,3.5066,3.5058,3.5076,3.5075,3.5085,3.5084,3.5126,3.5097,3.5097,3.5097,3.5097,0,3.4648,3.4681,3.4721,3.4747,3.4785,3.481,3.4846,3.4867,3.4896,3.4925,3.4939,3.4965,3.499,3.5018,3.5033,3.5069,3.5078,3.5087,3.5091,3.5086,3.5084,3.5096,3.5094,3.5099,3.5098,3.5098,3.5098,0,3.4665,3.4693,3.474,3.4784,3.4795,3.4821,3.4857,3.4881,3.4902,3.4938,3.4947,3.4978,3.5012,3.5035,3.5078,3.5088,3.5127,3.5131,3.5117,3.5118,3.5135,3.5132,3.5185,3.5193,3.5159,3.516,3.516,0,3.4685,3.4712,3.4759,3.4781,3.4802,3.4836,3.4859,3.4885,3.4908,3.4948,3.4967,3.5003,3.5033,3.5087,3.5111,3.5144,3.5148,3.5164,3.5152,3.5147,3.5147,3.5145,3.5147,3.5165,3.5166,3.5166,3.5166,0,3.4717,3.473,3.4764,3.4804,3.4832,3.4863,3.4894,3.491,3.494,3.4965,3.5002,3.5026,3.5071,3.5106,3.5141,3.516,3.5167,3.517,3.5175,3.517,3.5161,3.5165,3.5121,3.5168,3.5168,3.5168,3.5168,3.5167,3.4735,3.476,3.4798,3.4835,3.4862,3.4891,3.4917,3.4941,3.4973,3.5014,3.5026,3.5064,3.5096,3.5144,3.5164,3.5192,3.519,3.5199,3.5201,3.5202,3.5202,3.5157,3.5199,3.5199,3.5199,3.5199,3.5199,0,3.4768,3.4793,3.4828,3.4873,3.4902,3.491,3.4944,3.4967,3.5002,3.5032,3.5062,3.5104,3.5138,3.5166,3.5201,3.5218,3.5222,3.5226,3.5224,3.5228,3.5202,3.5194,3.5222,3.5222,3.5222,3.5222,3.5222,3.5222,3.4788,3.483,3.4848,3.4903,3.4927,3.4967,3.4986,3.5012,3.5037,3.5084,3.5113,3.5132,3.5161,3.5198,3.5229,3.5236,3.5248,3.5251,3.5258,3.5233,3.523,3.5228,3.522,3.5253,3.5253,3.5282,3.5283,3.5283]}]]